STARLINK-32181, 60349

Orbit data source: Space-Track

STARLINK-32181, 60349 is a payload satellite owned by SpaceX/Seattle (US) in LEO that was launched on Fri, 02 Aug 2024 UTC via an FALCON 9 launch vehicle from the Air Force Eastern Test Range (AFETR). Payload-class satellites include a variety of spacecraft equipped with specific instruments for various scientific and technological missions. These include communications satellites like Starlink; space stations such as the ISS; scientific satellites like the Hubble; Earth observation satellites from companies like Planet Labs, Umbra, and HawkEye 360; GPS; miniature CubeSats for education and research; and military/defense satellites.

Loading next visibility...
Identifier
60349, 2024-136W
Orbit
LEO
Country
Flag of USUS
Related business
Manufacturer
SpaceX/Seattle
Mission
Operational Commercial Communications
Bus & Motor
STARLINK V2M, Unknown motor
Mass
730 kg wet, ~700 kg dry
Launch date (UTC)
2024-08-02 (1 year ago)
Launch vehicle
FALCON 9
Launch site
Air Force Eastern Test Range (AFETR)
Object type
Payload
Rocket body
Debris
Shape & HBR
Box + 2 Pan, 17.7 m
Radar Cross Section
33.884 m², Large (>1 m²)

Expand to show TLE details & history
Last TLE update: 1 day ago

TLE from 1 day ago
0 STARLINK-32181
1 60349U 24136W   25338.81673335  .00000190  00000-0  18544-4 0  9991
2 60349  53.1611 156.0151 0001606 159.4015 200.7051 15.30196927 75143
Epoch: 2025-12-04T19:36Z
TLE epoch observation values (Epoch: 2025-12-04T19:36:05.761Z)
Latitude
-0°
Longitude
148.12335°
Altitude
477.154 km
Speed
7.628 km/s
True Right ascension
10h 24m 03s
True Declination
0° 00' 00"
Sunlit
Object was in daylight at epoch
Visualization orbit readout
Latitude
Unknown
Longitude
Unknown
Altitude
Unknown
Speed
Unknown
Apparent Right ascension
Unknown
Apparent Declination
Unknown
Sunlit
N/A
Visualization observer readout
Local Sidereal Time
01:50:20
Azimuth
Unknown
Elevation
Unknown
Doppler factor
Unknown
Orbital elements
Apogee altitude
476.581 km
Perigee altitude
474.38 km
Semi-major axis
6,853.617 km
Eccentricity
0.00016
Inclination
53.1611°
RAAN
156.0151°
Arg. of periapsis
159.4015°
True anomaly
200.69859°
Mean anomaly
200.7051°
Eccentric anomaly
200.70185°
Mean motion
3.82528 °/min
Orbital period
94.11 mins
BSTAR
0.000018544
Loading maneuver chart data...
Computing Atmospheric mass density...
Loading historical data...
Loading historical data...
Loading historical data...
Loading historical data...
Loading historical data...
Loading historical data...
Loading historical data...

Documentation

Showing up to 5 results
|